Flag for U.S.A. Weather past 2 weeks in Manhattan, Kansas, U.S.A.

Now
60 °F

Clear.


Feels Like: 60 °F
Forecast: 51 / 84 °F
Wind: No wind

Location: Manhattan Municipal Airport

Current Time: Mar 31, 2015 at 11:38:24 PM

Latest Report: Mar 31, 2015 at 10:52 PM


Visibility: 10 mi

Pressure: 29.88 "Hg

Humidity: 38%

Dew point: 34 °F

Location of ManhattanLocation

Historic Weather in Manhattan — Graph

°F

Manhattan temperature yesterday

Maximum temperature yesterday: 77 °F (at 3:52 PM)
Minimum temperature yesterday: 28 °F (at 5:52 AM)
Average temperature yesterday: 53 °F

Past Weeks' High & Low Weather Summary

 TemperatureHumidityPressure
High79 °F (Mar 31, 3:52 PM)100% (Mar 19, 1:52 AM)30.43 "Hg (Mar 19, 1:52 AM)
Low26 °F (Mar 20, 2:52 AM)16% (Mar 17, 3:52 PM)29.81 "Hg (Mar 24, 2:52 PM)
Average48 °F64%30.09 "Hg
* Reported Mar 16 9:52 PM — Mar 31 9:52 PM, Manhattan, Weather by CustomWeather, © 2015

Note: Actual official high and low records may vary slightly from our data, if they occured in-between our weather recording intervals... More about our weather records

Advertising

Manhattan weather history for previous 24 hours

 ConditionsComfort  
Time TempWeatherWind HumidityBarometerVisibility
9:52 PM
Tue, Mar 31
62 °FClear.No wind35%29.90 "Hg10 mi
8:52 PM63 °FClear.No wind33%29.90 "Hg10 mi
7:52 PM68 °FSunny.No wind27%29.89 "Hg10 mi
6:52 PM76 °FSunny.8 mph21%29.88 "Hg10 mi
5:52 PM78 °FSunny.6 mph18%29.88 "Hg10 mi
4:52 PM78 °FSunny.7 mph18%29.89 "Hg10 mi
3:52 PM79 °FSunny.10 mph19%29.91 "Hg10 mi
2:52 PM77 °FSunny.5 mph19%29.94 "Hg10 mi
1:52 PM77 °FSunny.9 mph21%29.96 "Hg10 mi
12:52 PM74 °FSunny.13 mph25%29.98 "Hg10 mi
11:52 AM72 °FSunny.10 mph28%30.01 "Hg10 mi
10:52 AM68 °FSunny.13 mph33%30.02 "Hg10 mi
9:52 AM62 °FSunny.12 mph41%30.01 "Hg10 mi
8:52 AM51 °FSunny.No wind69%30.01 "Hg7 mi
7:52 AM40 °FFog.No wind86%29.99 "Hg6 mi
6:52 AM38 °FClear.No wind93%29.96 "Hg8 mi
5:52 AM41 °FClear.No wind86%29.95 "Hg8 mi
4:52 AM42 °FClear.No wind82%29.93 "Hg10 mi
3:52 AM44 °FClear.No wind79%29.92 "Hg10 mi
2:52 AM47 °FClear.No wind74%29.92 "Hg10 mi
1:52 AM48 °FClear.No wind71%29.93 "Hg10 mi
12:52 AM48 °FClear.No wind74%29.93 "Hg10 mi
11:52 PM
Mon, Mar 30
48 °FClear.No wind74%29.94 "Hg10 mi
Weather by CustomWeather, © 2015

See weather overviewHow to use our weather pages